contact:dominique.lefevre@mio.osupytheas.fr, maurice.libes@osupytheas.fr, didier.mallarino@osupytheas.fr
Project:EMSO http://www.emso-fr.org/EMSO-France
Depth: 2436.0 m
Title:EMSO Ligure Ouest : Data MII capteur MICROCAT
DateTime_Computer,Latitude,Longitude,Temperature,Conductivity,Pressure,DateTime_Instrument
DateTime_Computer,Latitude,Longitude,degC,S m-1,dbar,DateTime_Instrument
2020-10-12T00:00:10Z,42.805,6.029,13.2979,4.59981,2470.11,2020-10-12T02:01:04Z
2020-10-12T00:03:13Z,42.805,6.029,13.2973,4.59979,2470.147,2020-10-12T02:04:07Z
2020-10-12T00:06:16Z,42.805,6.029,13.2976,4.59980,2470.077,2020-10-12T02:07:10Z
2020-10-12T00:09:19Z,42.805,6.029,13.2972,4.59984,2470.133,2020-10-12T02:10:13Z
2020-10-12T00:12:22Z,42.805,6.029,13.2969,4.59979,2470.147,2020-10-12T02:13:16Z
2020-10-12T00:15:25Z,42.805,6.029,13.2974,4.59980,2470.11,2020-10-12T02:16:19Z
2020-10-12T00:18:29Z,42.805,6.029,13.2971,4.59980,2470.124,2020-10-12T02:19:22Z
2020-10-12T00:21:32Z,42.805,6.029,13.2975,4.59979,2470.124,2020-10-12T02:22:25Z
2020-10-12T00:24:35Z,42.805,6.029,13.2976,4.59980,2470.087,2020-10-12T02:25:29Z
2020-10-12T00:27:38Z,42.805,6.029,13.2973,4.59980,2470.11,2020-10-12T02:28:32Z
2020-10-12T00:30:41Z,42.805,6.029,13.2973,4.59981,2470.133,2020-10-12T02:31:35Z
2020-10-12T00:33:44Z,42.805,6.029,13.2973,4.59981,2470.147,2020-10-12T02:34:38Z
2020-10-12T00:36:47Z,42.805,6.029,13.2974,4.59980,2470.133,2020-10-12T02:37:41Z
2020-10-12T00:39:50Z,42.805,6.029,13.2977,4.59981,2470.147,2020-10-12T02:40:44Z
2020-10-12T00:42:54Z,42.805,6.029,13.2975,4.59980,2470.124,2020-10-12T02:43:47Z
2020-10-12T00:45:57Z,42.805,6.029,13.2975,4.59981,2470.133,2020-10-12T02:46:50Z
2020-10-12T00:49:00Z,42.805,6.029,13.2976,4.59981,2470.11,2020-10-12T02:49:54Z
2020-10-12T00:52:03Z,42.805,6.029,13.2975,4.59979,2470.11,2020-10-12T02:52:57Z
2020-10-12T00:55:06Z,42.805,6.029,13.2977,4.59980,2470.11,2020-10-12T02:56:00Z
2020-10-12T00:58:09Z,42.805,6.029,13.2976,4.59981,2470.147,2020-10-12T02:59:03Z
2020-10-12T01:01:12Z,42.805,6.029,13.2976,4.59980,2470.147,2020-10-12T03:02:06Z
2020-10-12T01:04:15Z,42.805,6.029,13.2972,4.59981,2470.133,2020-10-12T03:05:09Z
2020-10-12T01:07:19Z,42.805,6.029,13.2973,4.59978,2470.156,2020-10-12T03:08:12Z
2020-10-12T01:10:22Z,42.805,6.029,13.2976,4.59980,2470.124,2020-10-12T03:11:15Z
2020-10-12T01:13:25Z,42.805,6.029,13.2979,4.59979,2470.133,2020-10-12T03:14:19Z
2020-10-12T01:16:28Z,42.805,6.029,13.2972,4.59980,2470.124,2020-10-12T03:17:22Z
2020-10-12T01:19:31Z,42.805,6.029,13.2973,4.59979,2470.133,2020-10-12T03:20:25Z
2020-10-12T01:22:34Z,42.805,6.029,13.2973,4.59980,2470.171,2020-10-12T03:23:28Z
2020-10-12T01:25:37Z,42.805,6.029,13.2975,4.59981,2470.124,2020-10-12T03:26:31Z
2020-10-12T01:28:40Z,42.805,6.029,13.2971,4.59979,2470.147,2020-10-12T03:29:34Z
2020-10-12T01:31:43Z,42.805,6.029,13.2974,4.59979,2470.133,2020-10-12T03:32:37Z
2020-10-12T01:34:47Z,42.805,6.029,13.2974,4.59979,2470.11,2020-10-12T03:35:40Z
2020-10-12T01:37:50Z,42.805,6.029,13.2971,4.59980,2470.133,2020-10-12T03:38:44Z
2020-10-12T01:40:53Z,42.805,6.029,13.2971,4.59979,2470.171,2020-10-12T03:41:47Z
2020-10-12T01:43:56Z,42.805,6.029,13.2971,4.59981,2470.156,2020-10-12T03:44:50Z
2020-10-12T01:46:59Z,42.805,6.029,13.2974,4.59979,2470.133,2020-10-12T03:47:53Z
2020-10-12T01:50:02Z,42.805,6.029,13.2975,4.59983,2470.124,2020-10-12T03:50:56Z
2020-10-12T01:53:05Z,42.805,6.029,13.2976,4.59979,2470.133,2020-10-12T03:53:59Z
2020-10-12T01:56:08Z,42.805,6.029,13.2973,4.59979,2470.133,2020-10-12T03:57:02Z
2020-10-12T01:59:12Z,42.805,6.029,13.2979,4.59982,2470.171,2020-10-12T04:00:05Z
2020-10-12T02:02:15Z,42.805,6.029,13.2978,4.59978,2470.124,2020-10-12T04:03:09Z
2020-10-12T02:05:18Z,42.805,6.029,13.2973,4.59980,2470.124,2020-10-12T04:06:12Z
2020-10-12T02:08:21Z,42.805,6.029,13.2975,4.59978,2470.156,2020-10-12T04:09:15Z
2020-10-12T02:11:24Z,42.805,6.029,13.2971,4.59978,2470.133,2020-10-12T04:12:18Z
2020-10-12T02:14:27Z,42.805,6.029,13.2973,4.59979,2470.11,2020-10-12T04:15:21Z
2020-10-12T02:17:30Z,42.805,6.029,13.2976,4.59979,2470.156,2020-10-12T04:18:24Z
2020-10-12T02:20:33Z,42.805,6.029,13.2975,4.59978,2470.133,2020-10-12T04:21:27Z
2020-10-12T02:23:37Z,42.805,6.029,13.2971,4.59979,2470.147,2020-10-12T04:24:30Z
2020-10-12T02:26:40Z,42.805,6.029,13.2974,4.59980,2470.11,2020-10-12T04:27:33Z
2020-10-12T02:29:43Z,42.805,6.029,13.2971,4.59981,2470.1,2020-10-12T04:30:37Z
2020-10-12T02:32:46Z,42.805,6.029,13.2978,4.59980,2470.147,2020-10-12T04:33:40Z
2020-10-12T02:35:49Z,42.805,6.029,13.2974,4.59980,2470.171,2020-10-12T04:36:43Z
2020-10-12T02:38:52Z,42.805,6.029,13.2975,4.59979,2470.147,2020-10-12T04:39:46Z
2020-10-12T02:41:55Z,42.805,6.029,13.2976,4.59979,2470.171,2020-10-12T04:42:49Z
2020-10-12T02:44:58Z,42.805,6.029,13.2972,4.59981,2470.147,2020-10-12T04:45:52Z
2020-10-12T02:48:02Z,42.805,6.029,13.2977,4.59982,2470.156,2020-10-12T04:48:55Z
2020-10-12T02:51:05Z,42.805,6.029,13.2975,4.59984,2470.156,2020-10-12T04:51:58Z
2020-10-12T02:54:08Z,42.805,6.029,13.2973,4.59978,2470.147,2020-10-12T04:55:02Z
2020-10-12T02:57:11Z,42.805,6.029,13.2976,4.59981,2470.147,2020-10-12T04:58:05Z
2020-10-12T03:00:14Z,42.805,6.029,13.2974,4.59981,2470.171,2020-10-12T05:01:08Z
2020-10-12T03:03:17Z,42.805,6.029,13.2972,4.59983,2470.147,2020-10-12T05:04:11Z
2020-10-12T03:06:20Z,42.805,6.029,13.2973,4.59981,2470.147,2020-10-12T05:07:14Z
2020-10-12T03:09:23Z,42.805,6.029,13.2971,4.59981,2470.156,2020-10-12T05:10:17Z
2020-10-12T03:12:27Z,42.805,6.029,13.2971,4.59978,2470.156,2020-10-12T05:13:20Z
2020-10-12T03:15:30Z,42.805,6.029,13.2974,4.59978,2470.156,2020-10-12T05:16:23Z
2020-10-12T03:18:33Z,42.805,6.029,13.2971,4.59979,2470.133,2020-10-12T05:19:27Z
2020-10-12T03:21:36Z,42.805,6.029,13.2974,4.59978,2470.156,2020-10-12T05:22:30Z
2020-10-12T03:24:39Z,42.805,6.029,13.2975,4.59979,2470.133,2020-10-12T05:25:33Z
2020-10-12T03:27:42Z,42.805,6.029,13.2974,4.59981,2470.156,2020-10-12T05:28:36Z
2020-10-12T03:30:45Z,42.805,6.029,13.2975,4.59980,2470.194,2020-10-12T05:31:39Z
2020-10-12T03:33:48Z,42.805,6.029,13.2974,4.59981,2470.156,2020-10-12T05:34:42Z
2020-10-12T03:36:52Z,42.805,6.029,13.2974,4.59979,2470.11,2020-10-12T05:37:45Z
2020-10-12T03:39:55Z,42.805,6.029,13.2974,4.59981,2470.133,2020-10-12T05:40:48Z
2020-10-12T03:42:58Z,42.805,6.029,13.2972,4.59981,2470.133,2020-10-12T05:43:52Z
2020-10-12T03:46:01Z,42.805,6.029,13.2978,4.59982,2470.133,2020-10-12T05:46:55Z
2020-10-12T03:49:04Z,42.805,6.029,13.2976,4.59980,2470.156,2020-10-12T05:49:58Z
2020-10-12T03:52:07Z,42.805,6.029,13.2974,4.59981,2470.11,2020-10-12T05:53:01Z
2020-10-12T03:55:10Z,42.805,6.029,13.2975,4.59983,2470.133,2020-10-12T05:56:04Z
2020-10-12T03:58:13Z,42.805,6.029,13.2972,4.59982,2470.147,2020-10-12T05:59:07Z
2020-10-12T04:01:16Z,42.805,6.029,13.2974,4.59981,2470.156,2020-10-12T06:02:10Z
2020-10-12T04:04:20Z,42.805,6.029,13.2975,4.59983,2470.156,2020-10-12T06:05:13Z
2020-10-12T04:07:23Z,42.805,6.029,13.2976,4.59983,2470.133,2020-10-12T06:08:17Z
2020-10-12T04:10:26Z,42.805,6.029,13.2971,4.59978,2470.156,2020-10-12T06:11:20Z
2020-10-12T04:13:29Z,42.805,6.029,13.2974,4.59978,2470.147,2020-10-12T06:14:23Z
2020-10-12T04:16:32Z,42.805,6.029,13.2975,4.59986,2470.11,2020-10-12T06:17:26Z
2020-10-12T04:19:35Z,42.805,6.029,13.2974,4.59976,2470.133,2020-10-12T06:20:29Z
2020-10-12T04:22:38Z,42.805,6.029,13.2971,4.59976,2470.124,2020-10-12T06:23:32Z
2020-10-12T04:25:41Z,42.805,6.029,13.2974,4.59976,2470.124,2020-10-12T06:26:35Z
2020-10-12T04:28:45Z,42.805,6.029,13.2971,4.59978,2470.147,2020-10-12T06:29:38Z
2020-10-12T04:31:48Z,42.805,6.029,13.2978,4.59977,2470.133,2020-10-12T06:32:41Z
2020-10-12T04:34:51Z,42.805,6.029,13.2975,4.59976,2470.156,2020-10-12T06:35:45Z
2020-10-12T04:37:54Z,42.805,6.029,13.2977,4.59976,2470.133,2020-10-12T06:38:48Z
2020-10-12T04:40:57Z,42.805,6.029,13.2974,4.59978,2470.156,2020-10-12T06:41:51Z
2020-10-12T04:44:00Z,42.805,6.029,13.2974,4.59980,2470.133,2020-10-12T06:44:54Z
2020-10-12T04:47:03Z,42.805,6.029,13.2971,4.59978,2470.147,2020-10-12T06:47:57Z
2020-10-12T04:50:06Z,42.805,6.029,13.2971,4.59977,2470.087,2020-10-12T06:51:00Z
2020-10-12T04:53:10Z,42.805,6.029,13.2973,4.59984,2470.087,2020-10-12T06:54:03Z
2020-10-12T04:56:13Z,42.805,6.029,13.2976,4.59979,2470.133,2020-10-12T06:57:06Z
2020-10-12T04:59:16Z,42.805,6.029,13.2977,4.59978,2470.11,2020-10-12T07:00:10Z
2020-10-12T05:02:19Z,42.805,6.029,13.2973,4.59976,2470.1,2020-10-12T07:03:13Z
2020-10-12T05:05:22Z,42.805,6.029,13.2971,4.59977,2470.087,2020-10-12T07:06:16Z
2020-10-12T05:08:25Z,42.805,6.029,13.2971,4.59976,2470.133,2020-10-12T07:09:19Z
2020-10-12T05:11:28Z,42.805,6.029,13.2972,4.59976,2470.156,2020-10-12T07:12:22Z
2020-10-12T05:14:31Z,42.805,6.029,13.2971,4.59978,2470.1,2020-10-12T07:15:25Z
2020-10-12T05:17:34Z,42.805,6.029,13.2978,4.59978,2470.11,2020-10-12T07:18:28Z
2020-10-12T05:20:38Z,42.805,6.029,13.2974,4.59979,2470.147,2020-10-12T07:21:31Z
2020-10-12T05:23:41Z,42.805,6.029,13.2971,4.59976,2470.124,2020-10-12T07:24:35Z
2020-10-12T05:26:44Z,42.805,6.029,13.2974,4.59978,2470.124,2020-10-12T07:27:38Z
2020-10-12T05:29:47Z,42.805,6.029,13.2973,4.59978,2470.1,2020-10-12T07:30:41Z
2020-10-12T05:32:50Z,42.805,6.029,13.2971,4.59979,2470.147,2020-10-12T07:33:44Z
2020-10-12T05:35:53Z,42.805,6.029,13.2974,4.59980,2470.11,2020-10-12T07:36:47Z
2020-10-12T05:38:56Z,42.805,6.029,13.2971,4.59981,2470.1,2020-10-12T07:39:50Z
2020-10-12T05:41:59Z,42.805,6.029,13.2974,4.59976,2470.087,2020-10-12T07:42:53Z
2020-10-12T05:45:03Z,42.805,6.029,13.2972,4.59980,2470.11,2020-10-12T07:45:56Z
2020-10-12T05:48:06Z,42.805,6.029,13.2971,4.59976,2470.087,2020-10-12T07:49:00Z
2020-10-12T05:51:09Z,42.805,6.029,13.2973,4.59978,2470.11,2020-10-12T07:52:03Z
2020-10-12T05:54:12Z,42.805,6.029,13.2974,4.59978,2470.1,2020-10-12T07:55:06Z
2020-10-12T05:57:15Z,42.805,6.029,13.2971,4.59978,2470.11,2020-10-12T07:58:09Z
2020-10-12T06:00:18Z,42.805,6.029,13.2974,4.59976,2470.11,2020-10-12T08:01:12Z
2020-10-12T06:03:21Z,42.805,6.029,13.2974,4.59976,2470.1,2020-10-12T08:04:15Z
2020-10-12T06:06:24Z,42.805,6.029,13.2975,4.59978,2470.133,2020-10-12T08:07:18Z
2020-10-12T06:09:28Z,42.805,6.029,13.2974,4.59979,2470.11,2020-10-12T08:10:21Z
2020-10-12T06:12:31Z,42.805,6.029,13.2973,4.59978,2470.11,2020-10-12T08:13:24Z
2020-10-12T06:15:34Z,42.805,6.029,13.2974,4.59978,2470.1,2020-10-12T08:16:28Z
2020-10-12T06:18:37Z,42.805,6.029,13.2974,4.59978,2470.087,2020-10-12T08:19:31Z
2020-10-12T06:21:40Z,42.805,6.029,13.2972,4.59978,2470.133,2020-10-12T08:22:34Z
2020-10-12T06:24:43Z,42.805,6.029,13.2975,4.59976,2470.063,2020-10-12T08:25:37Z
2020-10-12T06:27:46Z,42.805,6.029,13.2971,4.59978,2470.087,2020-10-12T08:28:40Z
2020-10-12T06:30:49Z,42.805,6.029,13.2971,4.59974,2470.087,2020-10-12T08:31:43Z
2020-10-12T06:33:53Z,42.805,6.029,13.2974,4.59974,2470.11,2020-10-12T08:34:46Z
2020-10-12T06:36:56Z,42.805,6.029,13.2972,4.59976,2470.087,2020-10-12T08:37:49Z
2020-10-12T06:39:59Z,42.805,6.029,13.2973,4.59976,2470.087,2020-10-12T08:40:53Z
2020-10-12T06:43:02Z,42.805,6.029,13.2975,4.59976,2470.1,2020-10-12T08:43:56Z
2020-10-12T06:46:05Z,42.805,6.029,13.2970,4.59975,2470.124,2020-10-12T08:46:59Z
2020-10-12T06:49:08Z,42.805,6.029,13.2974,4.59977,2470.087,2020-10-12T08:50:02Z
2020-10-12T06:52:11Z,42.805,6.029,13.2972,4.59974,2470.077,2020-10-12T08:53:05Z
2020-10-12T06:55:14Z,42.805,6.029,13.2971,4.59978,2470.053,2020-10-12T08:56:08Z
2020-10-12T06:58:17Z,42.805,6.029,13.2976,4.59976,2470.063,2020-10-12T08:59:11Z
2020-10-12T07:01:21Z,42.805,6.029,13.2974,4.59976,2470.049,2020-10-12T09:02:14Z
2020-10-12T07:04:24Z,42.805,6.029,13.2973,4.59980,2470.087,2020-10-12T09:05:18Z
2020-10-12T07:07:27Z,42.805,6.029,13.2971,4.59976,2470.1,2020-10-12T09:08:21Z
2020-10-12T07:10:30Z,42.805,6.029,13.2973,4.59976,2470.087,2020-10-12T09:11:24Z
2020-10-12T07:13:33Z,42.805,6.029,13.2971,4.59976,2470.1,2020-10-12T09:14:27Z
2020-10-12T07:16:36Z,42.805,6.029,13.2973,4.59975,2470.087,2020-10-12T09:17:30Z
2020-10-12T07:19:39Z,42.805,6.029,13.2971,4.59975,2470.1,2020-10-12T09:20:33Z
2020-10-12T07:22:43Z,42.805,6.029,13.2971,4.59979,2470.087,2020-10-12T09:23:36Z
2020-10-12T07:25:46Z,42.805,6.029,13.2974,4.59974,2470.04,2020-10-12T09:26:39Z
2020-10-12T07:28:49Z,42.805,6.029,13.2974,4.59975,2470.077,2020-10-12T09:29:43Z
2020-10-12T07:31:52Z,42.805,6.029,13.2979,4.59976,2470.077,2020-10-12T09:32:46Z
2020-10-12T07:34:55Z,42.805,6.029,13.2973,4.59981,2470.096,2020-10-12T09:35:49Z
2020-10-12T07:37:58Z,42.805,6.029,13.2974,4.59978,2470.04,2020-10-12T09:38:52Z
2020-10-12T07:41:01Z,42.805,6.029,13.2973,4.59978,2470.077,2020-10-12T09:41:55Z
2020-10-12T07:44:04Z,42.805,6.029,13.2971,4.59974,2470.087,2020-10-12T09:44:58Z
2020-10-12T07:47:07Z,42.805,6.029,13.2976,4.59985,2470.063,2020-10-12T09:48:01Z
2020-10-12T07:50:11Z,42.805,6.029,13.2973,4.59975,2470.077,2020-10-12T09:51:04Z
2020-10-12T07:53:14Z,42.805,6.029,13.2973,4.59975,2470.077,2020-10-12T09:54:07Z
2020-10-12T07:56:17Z,42.805,6.029,13.2973,4.59974,2470.04,2020-10-12T09:57:11Z
2020-10-12T07:59:20Z,42.805,6.029,13.2972,4.59974,2470.063,2020-10-12T10:00:14Z
2020-10-12T08:02:23Z,42.805,6.029,13.2973,4.59973,2470.077,2020-10-12T10:03:17Z
2020-10-12T08:05:26Z,42.805,6.029,13.2976,4.59975,2470.053,2020-10-12T10:06:20Z
2020-10-12T08:08:29Z,42.805,6.029,13.2979,4.59974,2470.077,2020-10-12T10:09:23Z
2020-10-12T08:11:32Z,42.805,6.029,13.2973,4.59981,2470.077,2020-10-12T10:12:26Z
2020-10-12T08:14:36Z,42.805,6.029,13.2975,4.59977,2470.1,2020-10-12T10:15:29Z
2020-10-12T08:17:39Z,42.805,6.029,13.2976,4.59976,2470.063,2020-10-12T10:18:32Z
2020-10-12T08:20:42Z,42.805,6.029,13.2974,4.59977,2470.053,2020-10-12T10:21:36Z
2020-10-12T08:23:45Z,42.805,6.029,13.2976,4.59975,2470.077,2020-10-12T10:24:39Z
2020-10-12T08:26:48Z,42.805,6.029,13.2972,4.59976,2470.04,2020-10-12T10:27:42Z
2020-10-12T08:29:51Z,42.805,6.029,13.2976,4.59975,2470.077,2020-10-12T10:30:45Z
2020-10-12T08:32:54Z,42.805,6.029,13.2973,4.59980,2470.04,2020-10-12T10:33:48Z
2020-10-12T08:35:57Z,42.805,6.029,13.2972,4.59976,2470.04,2020-10-12T10:36:51Z
2020-10-12T08:39:01Z,42.805,6.029,13.2974,4.59974,2470.04,2020-10-12T10:39:54Z
2020-10-12T08:42:04Z,42.805,6.029,13.2976,4.59974,2470.077,2020-10-12T10:42:57Z
2020-10-12T08:45:07Z,42.805,6.029,13.2975,4.59980,2470.053,2020-10-12T10:46:01Z
2020-10-12T08:48:10Z,42.805,6.029,13.2976,4.59978,2470.017,2020-10-12T10:49:04Z
2020-10-12T08:51:13Z,42.805,6.029,13.2974,4.59976,2470.063,2020-10-12T10:52:07Z
2020-10-12T08:54:16Z,42.805,6.029,13.2973,4.59976,2470.087,2020-10-12T10:55:10Z
2020-10-12T08:57:19Z,42.805,6.029,13.2976,4.59986,2470.077,2020-10-12T10:58:13Z
2020-10-12T09:00:23Z,42.805,6.029,13.2974,4.59983,2470.04,2020-10-12T11:01:16Z
2020-10-12T09:03:26Z,42.805,6.029,13.2976,4.59978,2470.063,2020-10-12T11:04:19Z
2020-10-12T09:06:29Z,42.805,6.029,13.2973,4.59976,2470.04,2020-10-12T11:07:23Z
2020-10-12T09:09:32Z,42.805,6.029,13.2972,4.59979,2470.053,2020-10-12T11:10:26Z
2020-10-12T09:12:35Z,42.805,6.029,13.2975,4.59997,2470.1,2020-10-12T11:13:29Z
2020-10-12T09:15:38Z,42.805,6.029,13.2976,4.59983,2470.087,2020-10-12T11:16:32Z
2020-10-12T09:18:41Z,42.805,6.029,13.2974,4.59976,2470.077,2020-10-12T11:19:35Z
2020-10-12T09:21:44Z,42.805,6.029,13.2974,4.59977,2470.087,2020-10-12T11:22:38Z
2020-10-12T09:24:48Z,42.805,6.029,13.2971,4.59978,2470.03,2020-10-12T11:25:41Z
2020-10-12T09:27:51Z,42.805,6.029,13.2973,4.60002,2470.04,2020-10-12T11:28:44Z
2020-10-12T09:30:54Z,42.805,6.029,13.2973,4.59980,2470.063,2020-10-12T11:31:48Z
2020-10-12T09:33:57Z,42.805,6.029,13.2970,4.59979,2470.04,2020-10-12T11:34:51Z
2020-10-12T09:37:00Z,42.805,6.029,13.2976,4.59980,2470.04,2020-10-12T11:37:54Z
2020-10-12T09:40:03Z,42.805,6.029,13.2978,4.59994,2470.087,2020-10-12T11:40:57Z
2020-10-12T09:43:06Z,42.805,6.029,13.2974,4.59981,2470.077,2020-10-12T11:44:00Z
2020-10-12T09:46:09Z,42.805,6.029,13.2977,4.59994,2470.087,2020-10-12T11:47:03Z
2020-10-12T09:49:13Z,42.805,6.029,13.2976,4.59981,2470.077,2020-10-12T11:50:06Z
2020-10-12T09:52:16Z,42.805,6.029,13.2973,4.59987,2470.063,2020-10-12T11:53:09Z
2020-10-12T09:55:19Z,42.805,6.029,13.2977,4.60009,2470.077,2020-10-12T11:56:13Z
2020-10-12T09:58:22Z,42.805,6.029,13.2975,4.59980,2470.053,2020-10-12T11:59:16Z
2020-10-12T10:01:25Z,42.805,6.029,13.2976,4.59982,2470.077,2020-10-12T12:02:19Z
2020-10-12T10:04:28Z,42.805,6.029,13.2973,4.59979,2470.077,2020-10-12T12:05:22Z
2020-10-12T10:07:31Z,42.805,6.029,13.2976,4.59979,2470.063,2020-10-12T12:08:25Z
2020-10-12T10:10:34Z,42.805,6.029,13.2974,4.59978,2470.053,2020-10-12T12:11:28Z
2020-10-12T10:13:38Z,42.805,6.029,13.2975,4.59978,2470.04,2020-10-12T12:14:31Z
2020-10-12T10:16:41Z,42.805,6.029,13.2977,4.59980,2470.063,2020-10-12T12:17:34Z
2020-10-12T10:19:44Z,42.805,6.029,13.2977,4.59983,2470.053,2020-10-12T12:20:38Z
2020-10-12T10:22:47Z,42.805,6.029,13.2974,4.59990,2470.1,2020-10-12T12:23:41Z
2020-10-12T10:25:50Z,42.805,6.029,13.2973,4.59980,2470.063,2020-10-12T12:26:44Z
2020-10-12T10:28:53Z,42.805,6.029,13.2975,4.59980,2470.063,2020-10-12T12:29:47Z
2020-10-12T10:31:56Z,42.805,6.029,13.2976,4.59980,2470.087,2020-10-12T12:32:50Z
2020-10-12T10:34:59Z,42.805,6.029,13.2980,4.59986,2470.053,2020-10-12T12:35:53Z
2020-10-12T10:38:03Z,42.805,6.029,13.2974,4.59978,2470.063,2020-10-12T12:38:56Z
2020-10-12T10:41:06Z,42.805,6.029,13.2974,4.59986,2470.063,2020-10-12T12:42:00Z
2020-10-12T10:44:09Z,42.805,6.029,13.2974,4.59987,2470.063,2020-10-12T12:45:03Z
2020-10-12T10:47:12Z,42.805,6.029,13.2975,4.59984,2470.063,2020-10-12T12:48:06Z
2020-10-12T10:50:15Z,42.805,6.029,13.2982,4.59995,2470.087,2020-10-12T12:51:09Z
2020-10-12T10:53:18Z,42.805,6.029,13.2982,4.59991,2470.063,2020-10-12T12:54:12Z
2020-10-12T10:56:21Z,42.805,6.029,13.2977,4.60029,2470.11,2020-10-12T12:57:15Z
2020-10-12T10:59:24Z,42.805,6.029,13.2976,4.59995,2470.087,2020-10-12T13:00:18Z
2020-10-12T11:02:28Z,42.805,6.029,13.2986,4.59986,2470.087,2020-10-12T13:03:21Z
2020-10-12T11:05:31Z,42.805,6.029,13.2989,4.59990,2470.077,2020-10-12T13:06:25Z
2020-10-12T11:08:34Z,42.805,6.029,13.2988,4.59999,2470.077,2020-10-12T13:09:28Z
2020-10-12T11:11:37Z,42.805,6.029,13.2978,4.59995,2470.063,2020-10-12T13:12:31Z
2020-10-12T11:14:40Z,42.805,6.029,13.2977,4.59987,2470.087,2020-10-12T13:15:34Z
2020-10-12T11:17:43Z,42.805,6.029,13.2979,4.59999,2470.1,2020-10-12T13:18:37Z
2020-10-12T11:20:46Z,42.805,6.029,13.2974,4.59998,2470.087,2020-10-12T13:21:40Z
2020-10-12T11:23:49Z,42.805,6.029,13.2977,4.59997,2470.077,2020-10-12T13:24:43Z
2020-10-12T11:26:53Z,42.805,6.029,13.2973,4.59988,2470.087,2020-10-12T13:27:46Z
2020-10-12T11:29:56Z,42.805,6.029,13.2976,4.59985,2470.1,2020-10-12T13:30:50Z
2020-10-12T11:32:59Z,42.805,6.029,13.2975,4.59999,2470.087,2020-10-12T13:33:53Z
2020-10-12T11:36:02Z,42.805,6.029,13.2974,4.60007,2470.1,2020-10-12T13:36:56Z
2020-10-12T11:39:05Z,42.805,6.029,13.2974,4.60005,2470.087,2020-10-12T13:39:59Z
2020-10-12T11:42:08Z,42.805,6.029,13.2974,4.59993,2470.087,2020-10-12T13:43:02Z
2020-10-12T11:45:11Z,42.805,6.029,13.2976,4.59999,2470.087,2020-10-12T13:46:05Z
2020-10-12T11:48:14Z,42.805,6.029,13.2976,4.59992,2470.087,2020-10-12T13:49:08Z
2020-10-12T11:51:18Z,42.805,6.029,13.2973,4.59992,2470.124,2020-10-12T13:52:11Z
2020-10-12T11:54:21Z,42.805,6.029,13.2969,4.59996,2470.063,2020-10-12T13:55:15Z
2020-10-12T11:57:24Z,42.805,6.029,13.2976,4.60005,2470.087,2020-10-12T13:58:18Z
2020-10-12T12:00:27Z,42.805,6.029,13.2976,4.59999,2470.063,2020-10-12T14:01:21Z
2020-10-12T12:03:30Z,42.805,6.029,13.2976,4.59991,2470.11,2020-10-12T14:04:24Z
2020-10-12T12:06:33Z,42.805,6.029,13.2973,4.59989,2470.11,2020-10-12T14:07:27Z
2020-10-12T12:09:36Z,42.805,6.029,13.2974,4.59991,2470.147,2020-10-12T14:10:30Z
2020-10-12T12:12:39Z,42.805,6.029,13.2975,4.59988,2470.1,2020-10-12T14:13:33Z
2020-10-12T12:15:43Z,42.805,6.029,13.2976,4.59989,2470.1,2020-10-12T14:16:36Z
2020-10-12T12:18:46Z,42.805,6.029,13.2975,4.59986,2470.1,2020-10-12T14:19:40Z
2020-10-12T12:21:49Z,42.805,6.029,13.2976,4.59986,2470.11,2020-10-12T14:22:43Z
2020-10-12T12:24:52Z,42.805,6.029,13.2977,4.59987,2470.171,2020-10-12T14:25:46Z
2020-10-12T12:27:55Z,42.805,6.029,13.2973,4.59987,2470.124,2020-10-12T14:28:49Z
2020-10-12T12:30:58Z,42.805,6.029,13.2978,4.59991,2470.147,2020-10-12T14:31:52Z
2020-10-12T12:34:01Z,42.805,6.029,13.2972,4.59993,2470.087,2020-10-12T14:34:55Z
2020-10-12T12:37:05Z,42.805,6.029,13.2974,4.59996,2470.147,2020-10-12T14:37:58Z
2020-10-12T12:40:08Z,42.805,6.029,13.2973,4.59994,2470.133,2020-10-12T14:41:01Z
2020-10-12T12:43:11Z,42.805,6.029,13.2974,4.59988,2470.087,2020-10-12T14:44:05Z
2020-10-12T12:46:14Z,42.805,6.029,13.2976,4.59989,2470.11,2020-10-12T14:47:08Z
2020-10-12T12:49:17Z,42.805,6.029,13.2976,4.59991,2470.1,2020-10-12T14:50:11Z
2020-10-12T12:52:20Z,42.805,6.029,13.2977,4.59999,2470.11,2020-10-12T14:53:14Z
2020-10-12T12:55:23Z,42.805,6.029,13.2979,4.59988,2470.147,2020-10-12T14:56:17Z
2020-10-12T12:58:26Z,42.805,6.029,13.2978,4.59991,2470.18,2020-10-12T14:59:20Z
2020-10-12T13:01:30Z,42.805,6.029,13.2974,4.59991,2470.133,2020-10-12T15:02:23Z
2020-10-12T13:04:33Z,42.805,6.029,13.2976,4.59990,2470.171,2020-10-12T15:05:26Z
2020-10-12T13:07:36Z,42.805,6.029,13.2974,4.59986,2470.133,2020-10-12T15:08:30Z
2020-10-12T13:10:39Z,42.805,6.029,13.2974,4.59991,2470.156,2020-10-12T15:11:33Z
2020-10-12T13:13:42Z,42.805,6.029,13.2971,4.59985,2470.147,2020-10-12T15:14:36Z
2020-10-12T13:16:45Z,42.805,6.029,13.2972,4.59991,2470.133,2020-10-12T15:17:39Z
2020-10-12T13:19:48Z,42.805,6.029,13.2977,4.59991,2470.147,2020-10-12T15:20:42Z
2020-10-12T13:22:51Z,42.805,6.029,13.2976,4.59991,2470.133,2020-10-12T15:23:45Z
2020-10-12T13:25:55Z,42.805,6.029,13.2974,4.59988,2470.133,2020-10-12T15:26:48Z
2020-10-12T13:28:58Z,42.805,6.029,13.2978,4.59991,2470.171,2020-10-12T15:29:52Z
2020-10-12T13:32:01Z,42.805,6.029,13.2978,4.59990,2470.156,2020-10-12T15:32:55Z
2020-10-12T13:35:04Z,42.805,6.029,13.2976,4.59986,2470.11,2020-10-12T15:35:58Z
2020-10-12T13:38:07Z,42.805,6.029,13.2979,4.59986,2470.133,2020-10-12T15:39:01Z
2020-10-12T13:41:10Z,42.805,6.029,13.2978,4.59989,2470.18,2020-10-12T15:42:04Z
2020-10-12T13:44:13Z,42.805,6.029,13.2973,4.59985,2470.156,2020-10-12T15:45:07Z
2020-10-12T13:47:16Z,42.805,6.029,13.2975,4.59984,2470.18,2020-10-12T15:48:10Z
2020-10-12T13:50:20Z,42.805,6.029,13.2976,4.59986,2470.194,2020-10-12T15:51:13Z
2020-10-12T13:53:23Z,42.805,6.029,13.2976,4.59984,2470.147,2020-10-12T15:54:17Z
2020-10-12T13:56:26Z,42.805,6.029,13.2974,4.59982,2470.194,2020-10-12T15:57:20Z
2020-10-12T13:59:29Z,42.805,6.029,13.2982,4.59985,2470.171,2020-10-12T16:00:23Z
2020-10-12T14:02:32Z,42.805,6.029,13.2976,4.59982,2470.194,2020-10-12T16:03:26Z
2020-10-12T14:05:35Z,42.805,6.029,13.2971,4.59983,2470.18,2020-10-12T16:06:29Z
2020-10-12T14:08:38Z,42.805,6.029,13.2974,4.59982,2470.203,2020-10-12T16:09:32Z
2020-10-12T14:11:41Z,42.805,6.029,13.2976,4.59982,2470.194,2020-10-12T16:12:35Z
2020-10-12T14:14:45Z,42.805,6.029,13.2976,4.59983,2470.18,2020-10-12T16:15:38Z
2020-10-12T14:17:48Z,42.805,6.029,13.2975,4.59983,2470.194,2020-10-12T16:18:42Z
2020-10-12T14:20:51Z,42.805,6.029,13.2975,4.59981,2470.194,2020-10-12T16:21:45Z
2020-10-12T14:23:54Z,42.805,6.029,13.2975,4.59981,2470.217,2020-10-12T16:24:48Z
2020-10-12T14:26:57Z,42.805,6.029,13.2976,4.59985,2470.18,2020-10-12T16:27:51Z
2020-10-12T14:30:00Z,42.805,6.029,13.2979,4.59981,2470.194,2020-10-12T16:30:54Z
2020-10-12T14:33:03Z,42.805,6.029,13.2975,4.59982,2470.18,2020-10-12T16:33:57Z
2020-10-12T14:36:06Z,42.805,6.029,13.2976,4.59981,2470.18,2020-10-12T16:37:00Z
2020-10-12T14:39:10Z,42.805,6.029,13.2972,4.59980,2470.18,2020-10-12T16:40:03Z
2020-10-12T14:42:13Z,42.805,6.029,13.2974,4.59982,2470.227,2020-10-12T16:43:07Z
2020-10-12T14:45:16Z,42.805,6.029,13.2975,4.59984,2470.194,2020-10-12T16:46:10Z
2020-10-12T14:48:19Z,42.805,6.029,13.2977,4.59986,2470.18,2020-10-12T16:49:13Z
2020-10-12T14:51:22Z,42.805,6.029,13.2976,4.59981,2470.24,2020-10-12T16:52:16Z
2020-10-12T14:54:25Z,42.805,6.029,13.2974,4.59981,2470.171,2020-10-12T16:55:19Z
2020-10-12T14:57:28Z,42.805,6.029,13.2976,4.59981,2470.166,2020-10-12T16:58:22Z
2020-10-12T15:00:32Z,42.805,6.029,13.2973,4.59980,2470.18,2020-10-12T17:01:25Z